Location: Amsterdam
(30.7274°N, 84.4357°W)
Time: 07:24:02
(UTC+00:00)

Transit 2A Rocket - Pass Details

Date: 16 February 2026
Orbit: 583 x 900 km, 66.7° (Epoch: 8 March)

Event Time Altitude Azimuth Distance (km) Brightness Sun altitude
Rises 07:18:56 0° 337° (NNW) 3,299 - -62.7°
Reaches altitude 10° 07:21:29 10° 340° (NNW) 2,316 - -62.3°
Maximum altitude 07:26:44 68° 64° (ENE) 773 - -61.4°
Drops below altitude 10° 07:31:28 10° 147° (SSE) 2,095 - -60.5°
Sets 07:33:41 0° 150° (SSE) 2,960 - -60.1°
